W4SNA-3 Weather Reports


time (UTC)temp
F
wind
direction
speed
knots
gust
knots
rain 1hr
in
rain 24hr
in
rain mn
in
humidity
%
barometer
mb
20260502233647 45 302 1.7 4.3 0.00 0.00 0.00 57 1010.3
20260502233147 46 308 1.7 4.3 0.00 0.00 0.00 56 1010.2
20260502232647 46 312 1.7 5.2 0.00 0.00 0.00 55 1010.2
20260502232147 46 293 1.7 5.2 0.00 0.00 0.00 54 1010.1
20260502231618 46 314 1.7 4.3 0.00 0.00 0.00 53 1010.1
20260502231118 47 316 1.7 4.3 0.00 0.00 0.00 53 1010.1
20260502230621 47 307 0.9 6.1 0.00 0.00 0.00 51 1010.1
20260502230118 47 302 1.7 6.1 0.00 0.00 0.00 52 1010.1
20260502225251 48 307 2.6 7.0 0.00 0.00 0.00 52 1010.1
20260502224748 48 302 2.6 7.0 0.00 0.00 0.00 51 1009.9
20260502224248 48 306 3.5 7.0 0.00 0.00 0.00 51 1009.9
20260502223521 48 315 3.5 7.8 0.00 0.00 0.00 51 1009.7
20260502223011 48 317 4.3 7.8 0.00 0.00 0.00 51 1009.6
20260502222511 48 307 3.5 7.8 0.00 0.00 0.00 50 1009.5
20260502222011 49 317 3.5 6.1 0.00 0.00 0.00 49 1009.4
20260502221511 49 320 3.5 7.0 0.00 0.00 0.00 49 1009.3
20260502221011 50 311 3.5 7.0 0.00 0.00 0.00 48 1009.5
20260502220511 50 300 3.5 7.0 0.00 0.00 0.00 50 1009.6
20260502220011 50 319 2.6 7.0 0.00 0.00 0.00 49 1009.5
20260502215511 51 327 2.6 6.1 0.00 0.00 0.00 49 1009.5
20260502215011 51 321 2.6 6.1 0.00 0.00 0.00 49 1009.6
20260502214511 51 318 2.6 7.0 0.00 0.00 0.00 48 1009.5
20260502214011 51 306 3.5 7.0 0.00 0.00 0.00 47 1009.6
20260502213521 51 325 1.7 5.2 0.00 0.00 0.00 49 1009.4
20260502213011 51 303 2.6 5.2 0.00 0.00 0.00 47 1009.4
20260502212531 52 302 1.7 7.0 0.00 0.00 0.00 45 1009.4
20260502212011 52 298 2.6 7.8 0.00 0.00 0.00 44 1009.2
20260502211511 53 278 2.6 7.8 0.00 0.00 0.00 45 1009.2
20260502211011 53 283 1.7 5.2 0.00 0.00 0.00 45 1009.1
20260502210528 54 293 2.6 5.2 0.00 0.00 0.00 43 1009.1
20260502205741 55 296 2.6 5.2 0.00 0.00 0.00 42 1008.9
20260502205223 55 332 2.6 7.8 0.00 0.00 0.00 41 1008.9
20260502204723 56 308 3.5 7.8 0.00 0.00 0.00 39 1008.9
20260502204148 57 349 1.7 7.0 0.00 0.00 0.00 39 1009.0
20260502203651 57 346 2.6 7.0 0.00 0.00 0.00 38 1008.9
20260502203157 58 317 1.7 5.2 0.00 0.00 0.00 40 1008.9
20260502202148 57 331 2.6 6.1 0.00 0.00 0.00 40 1009.0
20260502201700 56 315 1.7 6.1 0.00 0.00 0.00 41 1008.9
20260502201148 57 313 2.6 6.1 0.00 0.00 0.00 39 1008.8
20260502200648 58 291 1.7 6.1 0.00 0.00 0.00 38 1008.8
20260502200148 58 330 1.7 7.0 0.00 0.00 0.00 38 1008.8
20260502195648 59 300 0.9 7.0 0.00 0.00 0.00 38 1008.8
20260502195150 58 323 1.7 4.3 0.00 0.00 0.00 39 1008.9
20260502194650 58 3 0.9 5.2 0.00 0.00 0.00 36 1009.1
20260502194148 58 338 2.6 5.2 0.00 0.00 0.00 36 1009.1
20260502193648 59 342 1.7 4.3 0.00 0.00 0.00 38 1009.3
20260502193154 59 335 0.9 6.1 0.00 0.00 0.00 38 1009.4
20260502192648 59 335 1.7 6.1 0.00 0.00 0.00 37 1009.3
20260502192148 59 311 1.7 5.2 0.00 0.00 0.00 37 1009.3
20260502191648 59 40 2.6 5.2 0.00 0.00 0.00 38 1009.2
20260502191148 59 305 1.7 6.1 0.00 0.00 0.00 37 1009.3
20260502190648 59 345 1.7 6.1 0.00 0.00 0.00 35 1009.3
20260502190148 60 331 0.9 9.6 0.00 0.00 0.00 36 1009.3
20260502185648 60 316 2.6 9.6 0.00 0.00 0.00 37 1009.5
20260502185149 60 351 1.7 4.3 0.00 0.00 0.00 39 1009.4
20260502184648 60 336 0.9 4.3 0.00 0.00 0.00 40 1009.4
20260502184148 60 356 0.9 4.3 0.00 0.00 0.00 36 1009.4
20260502183648 59 305 1.7 5.2 0.00 0.00 0.00 38 1009.3
20260502183148 59 308 1.7 5.2 0.00 0.00 0.00 38 1009.5
20260502182406 58 317 1.7 7.0 0.00 0.00 0.00 39 1009.6
20260502181905 58 340 1.7 6.1 0.00 0.00 0.00 41 1009.7
20260502181407 57 343 0.9 5.2 0.00 0.00 0.00 40 1009.7
20260502180905 57 38 1.7 5.2 0.00 0.00 0.00 40 1009.8
20260502170136 57 46 0.9 4.3 0.00 0.00 0.00 41 1010.5
20260502164154 56 324 0.9 7.0 0.00 0.00 0.00 43 1011.0
20260502163654 55 46 0.9 7.0 0.00 0.00 0.00 44 1010.9
20260502163154 54 355 0.9 7.0 0.00 0.00 0.00 48 1011.1
20260502162726 53 107 0.9 7.0 0.00 0.00 0.00 46 1011.1
20260502162158 52 114 0.9 8.7 0.00 0.00 0.00 49 1011.2
20260502161704 52 60 1.7 8.7 0.00 0.00 0.00 49 1011.2
20260502161155 51 358 1.7 7.0 0.00 0.00 0.00 49 1011.1
20260502160659 51 13 2.6 7.0 0.00 0.00 0.00 50 1011.1
20260502160154 50 262 0.9 4.3 0.00 0.00 0.00 52 1011.1
20260502151944 45 292 1.7 7.0 0.00 0.00 0.00 58 1011.1
20260502151444 44 294 2.6 6.1 0.00 0.00 0.00 57 1010.9
20260502150527 43 316 2.6 7.0 0.00 0.00 0.00 59 1010.6
20260502130443 41 336 2.6 7.8 0.00 0.00 0.00 65 1009.8
20260502123319 41 332 4.3 11.3 0.00 0.00 0.00 68 1009.6
20260502122821 41 329 5.2 11.3 0.00 0.00 0.00 66 1009.5
20260502122319 41 330 4.3 10.4 0.00 0.00 0.00 67 1009.4
20260502121819 40 329 4.3 10.4 0.00 0.00 0.00 68 1009.2
20260502121319 40 320 4.3 8.7 0.00 0.00 0.00 68 1009.1
20260502120819 40 341 4.3 8.7 0.00 0.00 0.00 69 1009.3
20260502115452 40 324 4.3 8.7 0.00 0.00 0.00 69 1009.6
20260502114952 40 331 4.3 7.8 0.00 0.00 0.00 70 1009.6
20260502114452 40 319 4.3 7.0 0.00 0.00 0.00 70 1009.7
20260502113952 40 320 4.3 7.8 0.00 0.00 0.00 70 1009.7
20260502113523 40 319 4.3 7.8 0.00 0.00 0.00 71 1009.3
20260502113026 40 327 4.3 10.4 0.00 0.00 0.00 71 1009.3
20260502112454 40 331 5.2 10.4 0.00 0.00 0.00 71 1009.2
20260502112000 40 334 4.3 7.0 0.00 0.00 0.00 72 1009.4
20260502111454 40 327 4.3 7.8 0.00 0.00 0.00 73 1009.0
20260502110953 40 330 4.3 10.4 0.00 0.00 0.00 73 1009.0
20260502110452 40 335 4.3 10.4 0.00 0.00 0.00 73 1008.9
20260502105952 41 336 4.3 8.7 0.00 0.00 0.00 73 1008.8
20260502105452 41 332 4.3 7.8 0.00 0.00 0.00 74 1008.9
20260502104952 41 323 4.3 9.6 0.00 0.00 0.00 75 1008.8
20260502104511 41 331 5.2 9.6 0.00 0.00 0.00 75 1009.0
20260502104000 41 322 3.5 7.0 0.00 0.00 0.00 77 1008.9
20260502103452 41 323 3.5 7.8 0.00 0.00 0.00 78 1008.9
20260502102952 41 328 4.3 7.8 0.00 0.00 0.00 79 1008.9
20260502102018 41 326 4.3 7.0 0.00 0.00 0.00 80 1008.8
20260502101518 41 328 4.3 7.0 0.00 0.00 0.00 80 1009.1
20260502101018 41 321 4.3 7.0 0.00 0.00 0.00 80 1009.0
20260502100518 42 322 5.2 7.0 0.00 0.00 0.00 80 1009.2
20260502091459 42 332 5.2 7.8 0.00 0.00 0.00 82 1009.4
20260502090959 42 323 4.3 9.6 0.00 0.00 0.00 83 1009.5
20260502090459 42 329 5.2 11.3 0.00 0.00 0.00 83 1009.6
20260502071003 43 351 4.3 8.7 0.00 0.00 0.00 80 1009.1
20260502070500 43 340 3.5 7.8 0.00 0.00 0.00 80 1009.1
20260502070001 44 321 3.5 11.3 0.00 0.00 0.00 80 1009.1
20260502065500 44 335 3.5 11.3 0.00 0.00 0.00 81 1009.2
20260502064502 44 325 3.5 7.0 0.00 0.00 0.00 81 1009.5
20260502063826 44 336 3.5 8.7 0.00 0.00 0.00 82 1009.5
20260502063325 44 332 3.5 8.7 0.00 0.00 0.00 82 1009.6
20260502062831 44 333 3.5 11.3 0.00 0.00 0.00 82 1009.6
20260502062325 45 327 3.5 11.3 0.00 0.00 0.00 83 1009.6
20260502061825 45 344 3.5 7.8 0.00 0.00 0.00 83 1009.7
20260502061325 45 344 3.5 7.8 0.00 0.00 0.00 83 1009.8
20260502060826 45 324 2.6 7.8 0.00 0.00 0.00 82 1009.8
20260502060325 45 328 2.6 7.8 0.00 0.00 0.00 83 1009.9
20260502055827 45 318 2.6 7.8 0.00 0.00 0.00 82 1010.0
20260502055325 45 325 2.6 7.0 0.00 0.00 0.00 82 1010.1
20260502054826 45 337 2.6 6.1 0.00 0.00 0.00 83 1010.1
20260502054325 45 318 2.6 6.1 0.00 0.00 0.00 82 1010.0
20260502053827 45 327 2.6 6.1 0.00 0.00 0.00 82 1010.2
20260502053325 45 310 2.6 6.1 0.00 0.00 0.00 82 1010.0
20260502052834 46 335 2.6 5.2 0.00 0.00 0.00 82 1010.1
20260502051837 46 328 2.6 5.2 0.00 0.00 0.00 82 1010.2
20260502051337 46 339 2.6 6.1 0.00 0.00 0.00 81 1010.3
20260502050837 46 327 2.6 6.1 0.00 0.00 0.00 81 1010.2
20260502050338 46 337 2.6 7.0 0.00 0.00 0.00 81 1010.3
20260502045837 46 342 2.6 7.0 0.00 0.00 0.00 81 1010.4
20260502045337 46 336 2.6 6.1 0.00 0.00 0.00 81 1010.5
20260502044837 46 329 2.6 5.2 0.00 0.00 0.00 80 1010.6
20260502044338 46 330 2.6 6.1 0.00 0.00 0.00 80 1010.6
20260502043837 46 331 3.5 8.7 0.00 0.00 0.00 80 1010.6
20260502043337 47 354 3.5 8.7 0.00 0.00 0.00 80 1010.7
20260502042837 47 337 2.6 4.3 0.00 0.00 0.00 80 1010.7
20260502042012 47 351 2.6 5.2 0.00 0.00 0.00 80 1010.7
20260502041512 47 36 1.7 4.3 0.00 0.00 0.00 80 1010.7
20260502041012 47 315 1.7 5.2 0.00 0.00 0.00 79 1010.7
20260502040512 47 332 2.6 5.2 0.00 0.00 0.00 79 1010.7
20260502035902 47 348 2.6 7.0 0.00 0.00 0.00 79 1010.8
20260502035402 47 7 1.7 6.1 0.00 0.00 0.00 80 1010.7
20260502034902 47 26 1.7 6.1 0.00 0.00 0.00 81 1010.8
20260502034402 48 45 0.9 5.2 0.00 0.00 0.00 83 1010.8
20260502033626 47 0 0.0 6.1 0.00 0.00 0.00 83 1011.0
20260502033125 48 259 0.9 2.6 0.00 0.00 0.00 84 1011.0
20260502032626 48 244 0.9 2.6 0.00 0.00 0.00 83 1011.1
20260502032143 48 0 0.0 0.0 0.00 0.00 0.00 83 1011.0
20260502031626 48 0 0.0 0.0 0.00 0.00 0.00 83 1011.0
20260502030801 48 0 0.0 0.9 0.00 0.00 0.00 83 1010.8
20260502030302 48 0 0.0 0.9 0.00 0.00 0.00 82 1010.7
20260502025801 49 0 0.0 0.0 0.00 0.00 0.00 82 1010.7
20260502025306 49 0 0.0 0.0 0.00 0.00 0.00 82 1010.5
20260502024717 49 0 0.0 0.0 0.00 0.00 0.00 81 1010.5
20260502024218 49 0 0.0 0.0 0.00 0.00 0.00 81 1010.6
20260502023717 49 0 0.0 0.0 0.00 0.00 0.00 81 1010.7
20260502023219 49 0 0.0 0.0 0.00 0.00 0.00 81 1010.7
20260502022716 49 0 0.0 0.0 0.00 0.00 0.00 81 1010.7
20260502022217 49 0 0.0 0.0 0.00 0.00 0.00 80 1010.7
20260502021718 49 0 0.0 0.0 0.00 0.00 0.00 80 1010.7
20260502021218 50 0 0.0 0.0 0.00 0.00 0.00 80 1010.6
20260502020718 50 0 0.0 0.0 0.00 0.00 0.00 80 1010.5
20260502020217 50 0 0.0 0.0 0.00 0.00 0.00 79 1010.4
20260502015720 50 0 0.0 0.9 0.00 0.00 0.00 79 1010.5
20260502015217 50 0 0.0 0.9 0.00 0.00 0.00 79 1010.2
20260502014717 50 0 0.0 0.0 0.00 0.00 0.00 79 1010.1
20260502014217 50 0 0.0 0.0 0.00 0.00 0.00 79 1010.2
20260502013717 50 0 0.0 0.9 0.00 0.00 0.00 78 1010.0
20260502013216 50 0 0.0 1.7 0.00 0.00 0.00 78 1010.1
20260502012718 50 0 0.0 1.7 0.00 0.00 0.00 78 1010.0
20260502012218 50 0 0.0 0.9 0.00 0.00 0.00 77 1010.1
20260502011716 50 0 0.0 0.9 0.00 0.00 0.00 77 1010.1
20260502011219 51 0 0.0 0.0 0.00 0.00 0.00 77 1010.3
20260502010717 51 0 0.0 0.0 0.00 0.00 0.00 77 1010.2
20260502010217 51 0 0.0 0.9 0.00 0.00 0.00 77 1010.2
20260502005716 51 0 0.0 0.9 0.00 0.00 0.00 76 1010.0
20260502005217 51 0 0.0 0.9 0.00 0.00 0.00 76 1010.0
20260502004717 51 0 0.0 1.7 0.00 0.00 0.00 76 1009.9
20260502004216 51 0 0.0 2.6 0.00 0.00 0.00 75 1009.7
20260502003716 51 0 0.0 2.6 0.00 0.00 0.00 75 1009.7
20260502003216 51 0 0.0 1.7 0.00 0.00 0.00 74 1009.4
20260502002716 52 0 0.0 1.7 0.00 0.00 0.00 74 1009.5
20260502002216 52 0 0.0 0.9 0.00 0.00 0.00 73 1009.5
20260502001716 52 0 0.0 0.9 0.00 0.00 0.00 73 1009.5
20260502001226 52 0 0.0 0.0 0.00 0.00 0.00 72 1009.3
20260502000426 52 0 0.0 0.0 0.00 0.00 0.00 72 1009.3
20260501235925 52 0 0.0 0.0 0.00 0.00 0.00 71 1009.2
20260501235425 53 0 0.0 0.0 0.00 0.00 0.00 71 1009.1
20260501234927 53 0 0.0 0.9 0.00 0.00 0.00 71 1009.0
20260501234424 53 0 0.0 0.9 0.00 0.00 0.00 70 1009.0
20260501233926 53 0 0.0 0.0 0.00 0.00 0.00 70 1008.8